Location: Dzierzno
(50.6159°N, 19.2852°E)
Time: 07:48:14
(UTC+00:00)

Cosmos 1869 - Pass Details

Date: 18 November 2025
Orbit: 453 x 480 km, 82.5° (Epoch: 13 December)

Event Time Altitude Azimuth Distance (km) Brightness Sun altitude
Rises 16:44:04 0° 203° (SSW) 2,486 7.1 -17.4°
Reaches altitude 10° 16:46:12 10° 210° (SSW) 1,610 6.2 -17.7°
Maximum altitude 16:49:35 45° 284° (WNW) 640 4.1 -18.2°
Drops below altitude 10° 16:52:59 10° 359° (N) 1,611 5.6 -18.8°
Enters shadow 16:53:48 - 2° (N) 1,942 6.0 -18.9°
